{"data":{"norad_id":64669,"intl_designator":"2025-139F","name":"STARLINK-34394","alt_names":[],"object_type":"PAYLOAD","status":"ACTIVE","operator":null,"country":"US","launch_date":"2025-06-28","launch_site_code":"AFETR","launch_vehicle":null,"mission":null,"orbit_class":"UNKNOWN","rcs_meters":null,"size_class":null,"mass_kg":null,"dimensions":null,"purposes":["comms"],"wikipedia_slug":null,"has_3d_model":false,"image_url":null,"decayed_at":null,"tle_current":{"epoch":"2026-09-20T09:12:41.862240Z","epoch_age_seconds":141398,"freshness":"FRESH","line1":"1 64669U 25139F   26263.38381785  .00014551  00000+0  44062-3 0  9997","line2":"2 64669  53.1594 298.3818 0001416  96.0732 264.0432 15.34423309 70156","mean_motion":15.34423309,"eccentricity":0.0001416,"inclination_deg":53.1594,"raan_deg":298.3818,"arg_perigee_deg":96.0732,"mean_anomaly_deg":264.0432,"bstar":0.00044062,"rev_number":7015,"period_min":93.846332466004,"perigee_km":461.66530865577,"apogee_km":463.60261499215,"semimajor_km":6840.770961824,"source":"CELESTRAK","updated_at":"2026-09-21T09:00:35.397778Z"}}}